EW5586 Weather Reports


time (UTC)temp
C
wind
direction
speed
KPH
gust
KPH
rain 1hr
cm
rain 24hr
cm
rain mn
cm
humidity
%
barometer
mb
20260505173547 18 236 17.7 41.8 0.00 0.00 0.00 66 1001.6
20260505173041 18 203 17.7 40.2 0.00 0.00 0.00 66 1001.5
20260505172535 18 0 16.1 40.2 0.00 0.00 0.00 67 1001.6
20260505171523 17 251 25.7 41.8 0.00 0.00 0.00 68 1001.7
20260505170511 18 195 22.5 53.1 0.00 0.00 0.00 66 1001.7
20260505170006 18 193 22.5 53.1 0.00 0.00 0.00 66 1001.8
20260505165459 18 244 24.1 48.3 0.00 0.00 0.00 66 1001.5
20260505164953 18 188 24.1 43.5 0.00 0.00 0.00 66 1001.4
20260505163941 18 201 24.1 48.3 0.00 0.00 0.00 67 1001.5
20260505163435 18 220 24.1 48.3 0.00 0.00 0.00 67 1001.5
20260505162930 18 234 22.5 38.6 0.00 0.00 0.00 68 1001.3
20260505162423 18 175 20.9 45.1 0.00 0.00 0.00 66 1001.2
20260505161917 18 225 19.3 45.1 0.00 0.00 0.00 67 1001.0
20260505161411 18 217 17.7 35.4 0.00 0.00 0.00 67 1001.2
20260505160905 18 199 19.3 35.4 0.00 0.00 0.00 67 1001.2
20260505160359 18 240 20.9 33.8 0.00 0.00 0.00 66 1001.0
20260505153323 20 219 22.5 41.8 0.00 0.00 0.00 64 1001.1
20260505152817 19 198 25.7 45.1 0.00 0.00 0.00 65 1001.2
20260505152311 18 221 27.4 45.1 0.00 0.00 0.00 65 1001.1
20260505151805 18 201 25.7 40.2 0.00 0.00 0.00 67 1001.0
20260505151304 18 198 27.4 48.3 0.00 0.00 0.00 65 1000.9
20260505150806 18 231 25.7 48.3 0.00 0.00 0.00 66 1000.8
20260505150303 17 211 20.9 32.2 0.00 0.00 0.00 70 1000.8
20260505130254 13 222 16.1 25.7 0.00 0.00 0.00 83 1000.3
20260505124751 14 0 17.7 29.0 0.00 0.00 0.00 82 1000.4
20260505124251 14 221 17.7 29.0 0.00 0.00 0.00 83 1000.4
20260505123751 13 205 17.7 30.6 0.00 0.00 0.00 86 1000.5
20260505123250 12 219 16.1 30.6 0.00 0.00 0.00 86 1000.5
20260505122753 13 213 14.5 29.0 0.00 0.00 0.00 81 1000.6
20260505122251 14 0 16.1 29.0 0.00 0.00 0.00 79 1000.7
20260505121751 15 214 16.1 30.6 0.00 0.00 0.00 80 1000.6
20260505121251 15 207 16.1 30.6 0.00 0.00 0.00 81 1000.6
20260505120247 14 209 19.3 29.0 0.00 0.00 0.00 81 1000.6
20260505115747 14 218 19.3 29.0 0.00 0.00 0.00 83 1000.6
20260505115247 14 198 17.7 25.7 0.00 0.00 0.00 83 1000.5
20260505114747 14 229 16.1 25.7 0.00 0.00 0.00 83 1000.4
20260505113747 14 0 16.1 25.7 0.00 0.00 0.00 87 1000.5
20260505113248 13 211 16.1 25.7 0.00 0.00 0.00 88 1000.5
20260505112747 12 207 16.1 27.4 0.00 0.00 0.00 87 1000.6
20260505112248 12 181 14.5 27.4 0.00 0.00 0.00 89 1000.5
20260505111743 12 208 16.1 24.1 0.00 0.00 0.00 87 1000.5
20260505111244 13 200 16.1 24.1 0.00 0.00 0.00 89 1000.5
20260505110743 12 198 12.9 19.3 0.00 0.00 0.00 88 1000.4
20260505110243 12 213 12.9 17.7 0.00 0.00 0.00 87 1000.4
20260505102145 -17 0.0 0.0 0.00 0.00 0.00 1000.4
20260505101551 -17 0.0 0.0 0.00 0.00 0.00 1000.0
20260505101049 -17 0.0 0.0 0.00 0.00 0.00 999.9
20260505100546 -17 0.0 0.0 0.00 0.00 0.00 1000.1
20260505100047 -17 0.0 0.0 0.00 0.00 0.00 1000.1
20260505095541 -17 0.0 0.0 0.00 0.00 0.00 1000.1
20260505094949 -17 0.0 0.0 0.00 0.00 0.00 1000.1
20260505094446 -17 0.0 0.0 0.00 0.00 0.00 1000.3
20260505093945 -17 0.0 0.0 0.00 0.00 0.00 1000.2
20260505093435 -17 0.0 0.0 0.00 0.00 0.00 1000.3
20260505092844 -17 0.0 0.0 0.00 0.00 0.00 1000.2
20260505092343 -17 0.0 0.0 0.00 0.00 0.00 1000.2
20260505091751 -17 0.0 0.0 0.00 0.00 0.00 1000.1
20260505091245 -17 0.0 0.0 0.00 0.00 0.00 1000.1
20260505090743 -17 0.0 0.0 0.00 0.00 0.00 1000.2
20260505085636 -17 0.0 0.0 0.00 0.00 0.00 1000.4
20260505085041 13 205 16.1 24.1 0.00 0.00 0.00 75 1000.5
20260505084451 13 205 16.1 24.1 0.00 0.00 0.00 75 1000.7
20260505083935 13 205 16.1 24.1 0.00 0.00 0.00 75 1000.7
20260505082932 13 194 17.7 25.7 0.00 0.00 0.00 76 1000.7
20260505082433 13 197 17.7 25.7 0.00 0.00 0.00 76 1000.8
20260505081933 13 227 16.1 25.7 0.00 0.00 0.00 78 1000.8
20260505081432 13 238 16.1 24.1 0.00 0.00 0.00 80 1000.8
20260505080933 13 187 17.7 25.7 0.00 0.00 0.00 81 1000.9
20260505080432 13 224 16.1 25.7 0.00 0.00 0.00 82 1000.9
20260505075933 13 215 16.1 25.7 0.00 0.00 0.00 80 1001.0
20260505075433 13 0 14.5 27.4 0.00 0.00 0.00 82 1000.9
20260505074926 13 0 16.1 27.4 0.00 0.00 0.00 82 1000.9
20260505074421 12 219 19.3 30.6 0.00 0.00 0.00 83 1001.0
20260505073914 12 191 20.9 30.6 0.00 0.00 0.00 81 1000.9
20260505072357 12 214 17.7 27.4 0.00 0.00 0.00 79 1000.8
20260505071850 12 209 17.7 25.7 0.00 0.00 0.00 77 1000.9
20260505071345 12 205 17.7 27.4 0.00 0.00 0.00 75 1000.9
20260505070838 12 0 16.1 24.1 0.00 0.00 0.00 75 1000.8
20260505070332 12 198 16.1 24.1 0.00 0.00 0.00 73 1000.8
20260505065320 13 211 16.1 24.1 0.00 0.00 0.00 65 1000.6
20260505064308 13 224 12.9 17.7 0.00 0.00 0.00 64 1000.5
20260505063802 13 232 12.9 17.7 0.00 0.00 0.00 64 1000.5
20260505063256 13 221 12.9 19.3 0.00 0.00 0.00 64 1000.5
20260505062751 14 202 12.9 19.3 0.00 0.00 0.00 63 1000.6
20260505062244 13 192 11.3 17.7 0.00 0.00 0.00 64 1000.6
20260505060726 13 206 11.3 16.1 0.00 0.00 0.00 64 1000.6
20260505060220 13 202 12.9 19.3 0.00 0.00 0.00 63 1000.6
20260505055714 14 192 12.9 19.3 0.00 0.00 0.00 63 1000.7
20260505055209 14 215 11.3 16.1 0.00 0.03 0.00 63 1000.7
20260505054702 14 205 9.7 12.9 0.00 0.03 0.00 63 1000.8
20260505054156 13 192 9.7 14.5 0.00 0.03 0.00 63 1000.7
20260505053650 14 209 9.7 14.5 0.00 0.03 0.00 63 1000.7
20260505053145 13 209 8.0 12.9 0.00 0.03 0.00 64 1000.8
20260505052638 13 205 8.0 12.9 0.00 0.03 0.00 64 1000.8
20260505052135 13 182 8.0 12.9 0.00 0.03 0.00 64 1000.9
20260505051634 13 191 6.4 12.9 0.00 0.03 0.00 66 1000.9
20260505051135 12 225 4.8 8.0 0.00 0.03 0.00 70 1000.9
20260505050130 12 213 3.2 6.4 0.00 0.03 0.00 73 1000.9
20260505041619 12 216 6.4 8.0 0.00 0.03 0.00 71 1001.5
20260505041119 13 211 4.8 8.0 0.00 0.03 0.00 70 1001.6
20260505040619 13 211 4.8 9.7 0.00 0.03 0.00 67 1001.5
20260505040118 13 227 4.8 9.7 0.00 0.03 0.00 65 1001.6
20260505035114 13 225 4.8 9.7 0.00 0.03 0.03 68 1001.5
20260505034613 13 244 4.8 8.0 0.00 0.03 0.03 67 1001.5
20260505034112 14 200 6.4 12.9 0.00 0.03 0.03 63 1001.6
20260505033607 15 193 8.0 14.5 0.00 0.03 0.03 58 1001.5
20260505033102 16 217 8.0 16.1 0.00 0.03 0.03 57 1001.5
20260505032554 16 214 8.0 16.1 0.00 0.03 0.03 58 1001.6
20260505031046 15 177 8.0 16.1 0.00 0.03 0.03 58 1001.8
20260505030546 15 221 6.4 12.9 0.00 0.03 0.03 59 1001.8
20260505030047 15 211 8.0 14.5 0.00 0.03 0.03 60 1001.7
20260505025544 15 221 9.7 16.1 0.00 0.03 0.03 61 1001.8
20260505025044 15 197 11.3 16.1 0.00 0.03 0.03 62 1001.9
20260505024544 15 0 11.3 16.1 0.00 0.03 0.03 63 1001.9
20260505024044 15 193 11.3 16.1 0.00 0.03 0.03 62 1001.9
20260505023544 15 215 9.7 16.1 0.00 0.03 0.03 62 1001.9
20260505023044 15 0 9.7 14.5 0.00 0.03 0.03 62 1002.0
20260505022544 15 222 9.7 14.5 0.00 0.03 0.03 63 1001.9
20260505022045 15 232 11.3 14.5 0.00 0.03 0.03 63 1002.0
20260505021545 15 187 9.7 14.5 0.00 0.03 0.03 62 1002.0
20260505021044 15 194 9.7 16.1 0.00 0.03 0.03 62 1002.1
20260505020545 15 207 9.7 16.1 0.00 0.03 0.03 62 1002.2
20260505020045 15 231 8.0 14.5 0.00 0.03 0.03 63 1002.1
20260505015538 15 217 8.0 14.5 0.00 0.03 0.03 64 1002.1
20260505015038 15 216 8.0 16.1 0.00 0.03 0.03 66 1002.2
20260505014539 14 0 9.7 16.1 0.00 0.03 0.03 68 1002.2
20260505014039 13 237 8.0 12.9 0.00 0.03 0.03 71 1002.3
20260505013538 13 219 6.4 12.9 0.00 0.03 0.03 73 1002.2
20260505013038 13 201 6.4 9.7 0.00 0.03 0.03 73 1002.2
20260505012538 13 0 8.0 12.9 0.00 0.03 0.03 70 1002.3
20260505012038 14 196 9.7 14.5 0.00 0.03 0.03 68 1002.4
20260505011538 15 209 9.7 14.5 0.00 0.03 0.03 66 1002.4
20260505011038 15 227 9.7 16.1 0.00 0.03 0.03 64 1002.4
20260505010538 15 198 11.3 16.1 0.00 0.03 0.03 63 1002.4
20260505010034 15 225 11.3 19.3 0.00 0.03 0.03 63 1002.3
20260505005035 15 220 9.7 17.7 0.00 0.03 0.03 62 1002.2
20260505004535 16 218 11.3 16.1 0.00 0.03 0.03 62 1002.2
20260505003534 15 225 9.7 17.7 0.00 0.03 0.03 65 1002.2
20260505003034 14 230 9.7 12.9 0.00 0.03 0.03 67 1002.0
20260505002534 14 194 9.7 12.9 0.00 0.03 0.03 68 1002.1
20260505002036 14 0 9.7 12.9 0.00 0.03 0.03 69 1002.1
20260505001534 13 219 9.7 12.9 0.00 0.03 0.03 70 1002.1
20260505001034 13 0 9.7 12.9 0.00 0.03 0.03 71 1002.0
20260505000535 13 215 9.7 12.9 0.00 0.03 0.03 73 1002.0
20260505000035 12 0 8.0 12.9 0.00 0.03 0.03 75 1001.9
20260504235534 12 219 6.4 12.9 0.00 0.03 0.03 75 1001.9
20260504235035 12 192 6.4 9.7 0.00 0.03 0.03 74 1001.9
20260504234535 13 0 6.4 12.9 0.00 0.03 0.03 72 1001.8
20260504233534 13 216 9.7 19.3 0.00 0.03 0.03 69 1001.8
20260504233034 14 211 11.3 19.3 0.00 0.03 0.03 68 1001.9
20260504232535 15 0 12.9 17.7 0.00 0.03 0.03 66 1001.9
20260504232034 14 213 11.3 17.7 0.00 0.03 0.03 67 1002.0
20260504231535 14 221 8.0 16.1 0.00 0.03 0.03 66 1001.9
20260504231032 15 208 8.0 16.1 0.00 0.03 0.03 67 1001.9
20260504230532 14 197 11.3 17.7 0.00 0.03 0.03 68 1001.9
20260504230032 14 213 12.9 19.3 0.00 0.03 0.03 68 1001.9
20260504225033 14 201 14.5 22.5 0.00 0.03 0.03 67 1001.9
20260504224531 15 215 14.5 22.5 0.00 0.03 0.03 64 1002.0
20260504223522 15 233 16.1 25.7 0.00 0.03 0.03 62 1002.1
20260504223022 16 0 14.5 30.6 0.00 0.03 0.03 60 1002.2
20260504222521 16 237 16.1 30.6 0.00 0.03 0.03 59 1002.2
20260504222020 16 213 19.3 30.6 0.00 0.03 0.03 59 1002.2
20260504221518 16 209 19.3 32.2 0.00 0.03 0.03 58 1002.2
20260504220516 16 240 19.3 30.6 0.00 0.03 0.03 60 1002.2
20260504215513 16 213 20.9 32.2 0.00 0.03 0.03 59 1002.2
20260504215013 16 194 22.5 32.2 0.00 0.03 0.03 60 1002.3
20260504214513 16 226 20.9 32.2 0.00 0.03 0.03 59 1002.2
20260504213512 16 218 20.9 30.6 0.00 0.03 0.03 60 1002.2
20260504213011 15 216 20.9 32.2 0.00 0.03 0.03 61 1002.3
20260504212511 16 218 20.9 32.2 0.00 0.03 0.03 61 1002.3
20260504212005 15 206 20.9 30.6 0.00 0.03 0.03 61 1002.3
20260504211500 15 197 20.9 29.0 0.00 0.03 0.03 61 1002.3
20260504210953 15 220 22.5 30.6 0.00 0.03 0.03 61 1002.4
20260504210447 15 221 22.5 30.6 0.00 0.03 0.03 62 1002.5
20260504205942 15 207 22.5 35.4 0.00 0.03 0.03 62 1002.5
20260504205435 15 179 22.5 33.8 0.00 0.03 0.03 62 1002.6
20260504204929 15 211 22.5 35.4 0.00 0.03 0.03 62 1002.7
20260504204424 16 209 24.1 35.4 0.00 0.03 0.03 60 1002.7
20260504203416 15 207 22.5 32.2 0.00 0.03 0.03 64 1002.7
20260504202916 15 206 20.9 30.6 0.00 0.03 0.03 64 1002.7
20260504202416 14 213 19.3 30.6 0.00 0.03 0.03 65 1002.7
20260504201916 14 205 20.9 29.0 0.00 0.03 0.03 65 1002.9
20260504200916 15 220 22.5 35.4 0.00 0.03 0.03 61 1002.9
20260504200416 15 250 22.5 33.8 0.00 0.03 0.03 62 1003.0
20260504195915 15 190 22.5 35.4 0.00 0.03 0.03 61 1003.0
20260504195417 15 221 24.1 35.4 0.00 0.03 0.03 60 1003.1
20260504194916 16 205 24.1 35.4 0.00 0.03 0.03 56 1003.2
20260504194415 16 214 24.1 35.4 0.00 0.03 0.03 56 1003.2
20260504193415 16 0 22.5 37.0 0.00 0.03 0.03 55 1003.4
20260504192916 16 234 22.5 37.0 0.00 0.03 0.03 57 1003.5
20260504191915 15 219 24.1 38.6 0.00 0.03 0.03 61 1003.6
20260504191409 15 194 25.7 40.2 0.00 0.03 0.03 60 1003.5
20260504190903 16 203 29.0 43.5 0.00 0.03 0.03 55 1003.6
20260504190357 16 184 30.6 45.1 0.00 0.03 0.03 55 1003.6
20260504185851 16 220 30.6 48.3 0.00 0.03 0.03 53 1003.7
20260504185345 16 183 29.0 48.3 0.00 0.03 0.03 55 1003.8
20260504184839 16 183 22.5 45.1 0.00 0.03 0.03 56 1003.7
20260504183827 15 172 22.5 35.4 0.00 0.03 0.03 61 1003.9
20260504182815 14 196 25.7 38.6 0.00 0.03 0.03 64 1003.9
20260504182309 14 207 30.6 45.1 0.00 0.03 0.03 63 1003.9
20260504181803 15 222 29.0 45.1 0.00 0.03 0.03 60 1003.9
20260504180753 14 0 29.0 40.2 0.00 0.03 0.03 60 1004.1
20260504180245 14 0 29.0 48.3 0.00 0.03 0.03 61 1004.2
20260504175739 14 0 30.6 48.3 0.00 0.03 0.03 61 1004.2
20260504175233 14 216 30.6 43.5 0.00 0.03 0.03 62 1004.2
20260504174727 13 196 32.2 51.5 0.00 0.03 0.03 64 1004.3